Regional Weather Roundup
Issued by NWS Burlington, VT

Home | Current Version | Previous Version | Text Only | Print | Product List | Glossary On
Versions: 1 2 3 4 5 6 7 8 9 10 11 12 13 14 15 16 17 18 19 20 21 22 23 24 25 26 27 28 29 30 31 32 33 34 35 36 37 38 39 40 41 42 43 44 45 46 47 48 49 50
000
ASUS41 KBTV 250730
RWRBTV
VERMONT REGIONAL WEATHER ROUNDUP
NATIONAL WEATHER SERVICE BURLINGTON VT
300 AM EDT WED APR 25 2018

NOTE: "FAIR" INDICATES FEW OR NO CLOUDS BELOW 12,000 FEET WITH NO
SIGNIFICANT WEATHER AND/OR OBSTRUCTIONS TO VISIBILITY.

* THESE REPORTS ARE NOT UNDER NWS QUALITY CONTROL AND/OR DO NOT
  REPORT WEATHER SUCH AS PRECIPITATION AND FOG.

VTZ001>019-250800-
_____VERMONT_____


CITY           SKY/WX    TMP DP  RH WIND       PRES   REMARKS
BURLINGTON     FAIR      58  36  43 S10       30.07F
MONTPELIER     FAIR      51  33  50 S13       30.14F
MORRISVILLE    FAIR      42  35  76 CALM      30.10F
ST. JOHNSBURY*   N/A     54  35  48 MISG      30.10S
LYNDONVILLE*   FAIR      50  34  53 SE9       30.12F
MIDDLEBURY*    MOCLDY    55  38  52 S8G16     30.11F
RUTLAND*       CLOUDY    53  36  52 SE7       30.13F
SPRINGFIELD    CLOUDY    51  38  60 CALM      30.15F
HIGHGATE*      FAIR      56  36  46 S7        30.06F
NEWPORT*       FAIR      50  31  47 S5        30.09F
BENNINGTON     LGT RAIN  50  41  71 SW8       30.12F
ISLAND POND*     N/A     48 N/A N/A SW8         N/A
GALLUP MILLS*    N/A     34 N/A N/A MISG        N/A
UNION VILLAGE*   N/A     52 N/A N/A MISG        N/A
MT. MANSFIELD*   N/A     43 N/A N/A SW26        N/A

_____LAKE CHAMPLAIN_____


CITY           SKY/WX    TMP DP  RH WIND       PRES   REMARKS
BURTON ISLAND*   N/A     52  37  58 S16G25      N/A
COLCHESTER RF*   N/A     50  36  57 S18         N/A
DIAMOND ISL*     N/A     55  39  54 SE18        N/A

$$

NYZ007-026>031-035-052-083-087-250800-
_____NORTHERN NEW YORK_____


CITY           SKY/WX    TMP DP  RH WIND       PRES   REMARKS
PLATTSBURGH    FAIR      52  36  54 S10       30.05F
SARANAC LAKE   CLOUDY    48  33  56 SW5       30.05F
MASSENA        CLOUDY    58  39  49 S7        30.04F
OGDENSBURG*    FAIR      55  40  55 SW5       30.04F
POTSDAM*       CLOUDY    57  36  44 S10       30.03F
STARK FALLS*     N/A     52 N/A N/A S6          N/A
WATERTOWN      CLOUDY    50  40  68 SW3       30.04S
FT DRUM        CLOUDY    55  37  50 SE5       30.03F
ALBANY         LGT RAIN  50  45  83 CALM      30.14F
GLENS FALLS    LGT RAIN  50  45  83 SW6       30.13F

$$
NHZ002-005-011-250800-
_____NEW HAMPSHIRE_____


CITY           SKY/WX    TMP DP  RH WIND       PRES   REMARKS
LEBANON        FAIR      54  36  50 S12       30.13F
KEENE          CLOUDY    52  37  58 CALM      30.16F
MT WASHINGTON  MOCLDY    32  18  55 W35         N/A  WCI  17
PLYMOUTH       FAIR      48  37  67 CALM      30.15F
WHITEFIELD     FAIR      39  31  72 CALM      30.12F

$$

_____REGIONAL QUEBEC LOCATIONS_____


CITY           SKY/WX    TMP DP  RH WIND       PRES   REMARKS
MONTREAL       CLOUDY    55  39  54 S8        30.02F
QUEBEC CITY    CLOUDY    45  36  70 NE3       30.04S
SHERBROOKE     CLEAR     45  30  57 E2        30.07F

_____REGIONAL ONTARIO LOCATIONS_____


CITY           SKY/WX    TMP DP  RH WIND       PRES   REMARKS
OTTAWA         LGT RAIN  52  41  66 W7        30.03F

______KEY______
VSB  - VISIBILITY IN MILES
WCI  - WIND CHILL INDEX
HX   - HEAT INDEX
$$
NNNN



USA.gov is the U.S. government's official web portal to all federal, state and local government web resources and services.